DateTimeUTC,F1_A11,F1_S11,BsB_S11,BsG_S11,BsR_S11,BbsB_S11,BbsG_S11,BbsR_S11,BaB_A11,BaG_A11,BaR_A11,Tu_S11,T_S11,Uu_S11,U_S11,P_S11,T1_A11
2021-11-03T15:00:00Z,00000200,21010000,,,,,,,-000.46,-000.09,0000.14,19.3,26.0,01.2,00.8,0642.6,31.1
2021-11-03T15:01:00Z,00000200,21000000,,,,,,,-000.16,-000.27,-000.19,19.3,26.0,01.2,00.8,0642.6,31.1
2021-11-03T15:02:00Z,00000200,21000000,,,,,,,0000.02,0000.14,-000.21,19.2,26.0,01.2,00.8,0642.6,31.1
2021-11-03T15:03:00Z,00000200,61000000,,,,,,,0000.28,-000.26,0000.09,19.2,26.0,01.2,00.8,0642.6,31.1
2021-11-03T15:04:00Z,00000200,41000000,-000.19,0000.10,0000.04,0001.03,0000.06,0000.04,0000.25,0000.81,0000.41,19.3,25.9,01.3,00.8,0643.4,31.1
2021-11-03T15:05:00Z,00000200,01000000,0000.31,0000.11,0000.36,0000.50,0000.12,0000.33,0000.01,-000.08,-000.11,19.4,25.9,01.3,00.9,0643.5,31.2
2021-11-03T15:06:00Z,00000200,01000000,0000.04,0000.20,0000.21,0000.07,0000.03,-000.17,0000.30,-000.13,-000.05,19.5,25.9,01.3,00.9,0643.5,31.2
2021-11-03T15:07:00Z,00000200,01000000,-000.24,0000.13,0000.40,-000.73,-000.20,0000.36,-000.35,0000.19,-000.04,19.5,25.9,01.3,00.9,0643.6,31.2
2021-11-03T15:08:00Z,00000200,01000000,-000.33,-000.06,0000.06,0000.22,-000.07,0000.29,-000.17,-000.14,0000.21,19.5,25.9,01.3,00.9,0643.6,31.2
2021-11-03T15:09:00Z,00000200,01000000,0000.18,0000.12,0000.17,-000.15,0000.37,0000.09,0000.35,-000.14,-000.19,19.5,25.9,01.2,00.8,0643.6,31.2
2021-11-03T15:10:00Z,00000200,01000000,-000.51,0000.06,0000.14,0000.07,0000.10,0000.08,-000.28,0000.11,0000.36,19.4,25.9,01.3,00.9,0643.6,31.2
2021-11-03T15:11:00Z,00000200,01000000,0000.21,0000.03,0000.14,0000.34,-000.12,-000.05,0000.28,-000.12,-000.48,19.4,25.8,01.2,00.8,0643.7,31.1
2021-11-03T15:12:00Z,00000200,01000000,0000.27,0000.17,0000.35,0000.26,-000.08,-000.15,-000.15,0000.55,0000.15,19.3,25.8,01.2,00.8,0643.7,31.1
2021-11-03T15:13:00Z,00000200,01000000,0000.24,-000.04,0000.32,0000.11,-000.12,0000.24,0000.05,-000.61,0000.07,19.3,25.8,01.1,00.8,0643.7,31.1
2021-11-03T15:14:00Z,00000200,01000000,-000.32,0000.35,0000.23,0000.09,0000.15,0000.11,-000.32,0000.20,0000.00,19.3,25.8,01.2,00.8,0643.8,31.1
2021-11-03T15:15:00Z,00000200,01000000,-000.09,0000.37,0000.06,0000.24,-000.06,0000.41,-000.01,-000.24,-000.33,19.3,25.7,01.2,00.8,0643.8,31.1
2021-11-03T15:16:00Z,00000200,01000000,-000.28,0000.34,0000.30,0000.46,0000.38,-000.06,-000.09,-000.18,-000.01,19.2,25.7,01.2,00.8,0643.8,31.1
2021-11-03T15:17:00Z,00000200,01000000,0000.21,0000.44,0000.46,-000.05,0000.05,0000.27,0000.14,0000.16,-000.18,19.2,25.7,01.3,00.8,0643.8,31.1
2021-11-03T15:18:00Z,00000200,01000000,0000.44,0000.35,0000.65,0000.43,0000.15,0000.10,0000.01,0000.03,0000.20,19.2,25.7,01.1,00.8,0643.8,31.1
2021-11-03T15:19:00Z,00000200,01000000,0000.39,0000.17,0000.39,-000.61,0000.01,0000.17,-000.11,-000.33,0000.20,19.2,25.6,01.2,00.8,0643.8,31.1
2021-11-03T15:20:00Z,00000200,01000000,0000.15,0000.29,0000.21,-000.21,-000.19,-000.16,0000.16,0000.32,-000.25,19.3,25.7,01.1,00.7,0643.9,31.2
2021-11-03T15:21:00Z,00000200,01000000,0000.22,0000.37,0000.11,-000.11,0000.29,0000.14,-000.15,0000.21,0000.21,19.4,25.7,01.2,00.8,0643.9,31.2
2021-11-03T15:22:00Z,00000200,01000000,-000.29,0000.32,0000.48,-000.75,-000.06,0000.09,0000.47,-000.20,-000.02,19.5,25.8,01.2,00.8,0644.0,31.2
2021-11-03T15:23:00Z,00000200,01000000,0000.54,-000.02,0000.30,-000.35,0000.23,-000.09,-000.46,0000.35,-000.02,19.6,25.8,01.1,00.7,0643.9,31.2
2021-11-03T15:24:00Z,00000200,01000000,0000.39,-000.06,0000.14,0000.25,0000.15,0000.05,-000.10,-000.02,0000.12,19.6,25.9,01.1,00.7,0644.0,31.2
2021-11-03T15:25:00Z,00000200,01000000,0000.74,0000.38,0000.31,-000.32,0000.12,-000.08,0000.20,-000.14,0000.09,19.6,25.9,01.0,00.7,0644.0,31.2
2021-11-03T15:26:00Z,00000200,01000000,0000.05,0000.06,-000.01,-000.09,0000.04,-000.03,0000.07,0000.05,-000.46,19.6,25.9,01.0,00.7,0644.0,31.2
2021-11-03T15:27:00Z,00000200,01000000,-000.47,-000.10,0000.08,0000.17,0000.02,0000.27,0000.02,-000.18,0000.41,19.5,25.8,01.0,00.7,0644.0,31.2
2021-11-03T15:28:00Z,00000200,01000000,0000.09,0000.35,0000.29,-000.02,-000.03,0000.03,-000.01,-000.03,-000.38,19.5,25.8,01.0,00.7,0644.0,31.1
2021-11-03T15:29:00Z,00000200,01000000,-000.16,0000.35,0000.01,-000.67,0000.23,-000.21,-000.05,-000.03,-000.02,19.5,25.8,00.9,00.6,0644.0,31.1
2021-11-03T15:30:00Z,00000200,01000000,-000.28,-000.06,0000.27,0000.10,-000.15,0000.27,0000.10,-000.22,0000.25,19.4,25.8,01.1,00.7,0644.0,31.1
2021-11-03T15:31:00Z,00000200,01000000,0000.03,0000.13,-000.01,-000.06,0000.24,-000.25,-000.51,0000.09,-000.28,19.4,25.7,01.0,00.7,0644.0,31.1
2021-11-03T15:32:00Z,00000200,01000000,-000.22,0000.27,0000.14,-000.44,-000.09,-000.02,0000.29,0000.01,0000.11,19.3,25.8,01.0,00.7,0644.0,31.1
2021-11-03T15:33:00Z,00000200,01000000,-000.18,0000.20,0000.19,-000.01,-000.17,-000.27,0000.28,0000.08,0000.16,19.3,25.7,01.0,00.7,0643.9,31.1
2021-11-03T15:34:00Z,00000200,01000000,0000.71,0000.08,0000.28,-000.19,0000.25,0000.33,-000.21,0000.33,-000.14,19.3,25.7,01.0,00.7,0644.0,31.1
2021-11-03T15:35:00Z,00000200,01000000,-000.06,-000.18,0000.15,-000.02,0000.24,0000.18,0000.13,-000.51,-000.00,19.4,25.7,01.0,00.7,0644.0,31.1
2021-11-03T15:36:00Z,00000200,01000000,0000.11,-000.01,0000.35,-000.08,-000.20,0000.11,0000.13,0000.45,0000.16,19.4,25.8,01.0,00.7,0644.0,31.2
2021-11-03T15:37:00Z,00000200,01000000,0000.01,0000.27,0000.14,0000.48,-000.14,-000.19,0000.14,-000.03,0000.03,19.4,25.7,01.1,00.7,0644.0,31.1
2021-11-03T15:38:00Z,00000200,01000000,-000.22,0000.16,0000.38,0000.19,0000.13,0000.19,-000.46,-000.00,0000.16,19.4,25.7,01.0,00.7,0644.0,31.1
2021-11-03T15:39:00Z,00000200,01000000,-000.45,0000.25,0000.15,0000.15,-000.04,-000.08,0000.23,-000.25,-000.39,19.3,25.7,01.0,00.7,0644.0,31.1
2021-11-03T15:40:00Z,00000200,01000000,-000.05,0000.32,0000.28,0000.20,0000.11,0000.33,0000.00,0000.08,0000.25,19.3,25.7,00.9,00.6,0644.0,31.1
2021-11-03T15:41:00Z,00000200,01000000,0000.60,-000.05,0000.28,0000.33,0000.20,0000.05,-000.01,-000.00,-000.05,19.2,25.7,01.0,00.7,0644.0,31.1
2021-11-03T15:42:00Z,00000200,01000000,0000.12,0000.31,0000.17,-000.23,-000.17,0000.10,0000.31,0000.19,-000.13,19.2,25.7,01.0,00.7,0644.0,31.1
2021-11-03T15:43:00Z,00000200,01000000,0000.45,-000.18,0000.66,0000.00,-000.11,0000.31,-000.31,0000.22,0000.28,19.2,25.6,01.0,00.7,0644.0,31.1
2021-11-03T15:44:00Z,00000200,01000000,-000.38,0000.20,0000.53,0000.05,0000.11,0000.16,-000.02,-000.40,-000.26,19.1,25.6,01.1,00.8,0644.0,31.1
2021-11-03T15:45:00Z,00000200,01000000,-000.07,0000.28,-000.09,0000.03,-000.07,0000.11,0000.46,0000.04,-000.00,19.1,25.6,01.1,00.7,0644.0,31.1
2021-11-03T15:46:00Z,00000200,01000000,0000.32,0000.70,-000.00,0000.00,-000.15,0000.27,-000.48,-000.20,-000.08,19.1,25.6,01.0,00.7,0644.0,31.1
2021-11-03T15:47:00Z,00000200,01000000,-000.50,0000.26,0000.03,0000.32,-000.26,0000.40,-000.07,0000.19,0000.20,19.1,25.6,01.0,00.7,0644.0,31.1
2021-11-03T15:48:00Z,00000200,01000000,0000.13,0000.29,0000.06,-000.23,-000.08,0000.04,0000.07,0000.27,-000.03,19.1,25.5,01.2,00.8,0644.0,31.1
2021-11-03T15:49:00Z,00000200,01000000,0000.11,0000.42,0000.14,0000.60,0000.19,0000.17,0000.58,0000.06,0000.35,19.1,25.5,01.1,00.7,0644.0,31.1
2021-11-03T15:50:00Z,00000200,01000000,-000.29,0000.37,0000.27,-000.07,0000.02,0000.04,-000.43,0000.02,0000.05,19.2,25.5,01.1,00.8,0644.1,31.1
2021-11-03T15:51:00Z,00000200,01000000,0000.15,0000.35,-000.21,-000.08,-000.20,-000.05,0000.47,0000.25,0000.05,19.3,25.6,01.1,00.7,0644.1,31.1
2021-11-03T15:52:00Z,00000200,01000000,0000.17,0000.25,0000.11,0000.00,0000.01,0000.20,0000.04,-000.13,0000.04,19.4,25.7,01.0,00.7,0644.0,31.2
2021-11-03T15:53:00Z,00000200,01000000,0000.04,0000.30,0000.13,0000.08,-000.02,0000.15,0000.15,0000.09,-000.07,19.4,25.7,01.1,00.7,0644.1,31.2
2021-11-03T15:54:00Z,00000200,01000000,0000.04,0000.14,0000.02,-000.07,0000.06,-000.24,-000.24,0000.20,0000.21,19.5,25.7,01.1,00.8,0644.0,31.2
2021-11-03T15:55:00Z,00000200,01000000,0000.63,-000.00,0000.39,-000.16,0000.30,0000.12,0000.04,-000.16,-000.19,19.5,25.7,01.0,00.7,0644.0,31.2
2021-11-03T15:56:00Z,00000200,01000000,0000.38,0000.10,-000.22,0000.16,-000.11,-000.12,0000.02,-000.14,0000.20,19.4,25.7,01.0,00.7,0644.0,31.2
2021-11-03T15:57:00Z,00000200,41000000,,,,,,,0000.53,0000.53,0000.10,19.5,25.7,00.3,00.2,0644.0,31.1
2021-11-03T15:58:00Z,00000200,61000000,,,,,,,-000.51,-000.31,0000.16,19.1,25.8,00.8,00.6,0643.2,31.1
2021-11-03T15:59:00Z,00000200,21000000,,,,,,,-000.05,-000.32,-000.59,19.1,25.9,00.9,00.6,0643.1,31.1
